Torna al catalogo

STARLINK-1230

AttivoComunicazioniVLEO
NORAD 45189·PAYLOAD·🇺🇸 United States

Lanciato Feb 17, 2020 da Cape Canaveral Space Force Station

Loading…

Prossimi Passaggi (prossime 24 ore)

TLE

AggiornatoSource: CelesTrak SupGP

Epoca: Sep 14, 2026, 13:35 UTC

1 45189C 20012M   26257.56645833  .00010366  00000+0  23057-3 0  2576
2 45189  53.1505 235.1789 0002475  68.5216 273.1767 15.43061345    15

Traccia STARLINK-1230 in tempo reale con AllMySat

Download on the App Store